Weather History for Cordoba, Spain

Change the Weather History Date:

Thursday, August 28, 2014

  Actual Average Record
Temperature  
Mean Temperature 85 °F -  
Max Temperature 104 °F - - ()
Min Temperature 66 °F - - ()
Cooling Degree Days 20    
Growing Degree Days 35 (Base 50)    
Moisture  
Dew Point 49 °F    
Average Humidity 24    
Maximum Humidity 59    
Minimum Humidity 6    
Precipitation  
Precipitation 0.00 in 0.03 in - ()
Sea Level Pressure  
Sea Level Pressure 29.94 in    
Wind  
Wind Speed 3 mph ()    
Max Wind Speed 12 mph    
Max Gust Speed -    
Visibility 19.0 miles    
Events      
T = Trace of Precipitation, MM = Missing Value Source: Averaged Metar Reports

Daily Weather History Graph

Daily Weather History Graph

Search for Another Location

Airport:

Trip Planner

Search our weather history database for the weather conditions in past years. The results will help you decide how hot, cold, wet, or windy it might be!

Date:

Astronomy

Aug. 28, 2014 Rise Set
Actual Time 7:45 AM CEST 8:54 PM CEST
Civil Twilight 7:18 AM CEST 9:21 PM CEST
Nautical Twilight 6:46 AM CEST 9:54 PM CEST
Astronomical Twilight 6:12 AM CEST 10:27 PM CEST
Moon 10:21 AM CEST (8/28) 10:15 PM CEST (8/28)
Length of Visible Light 14h 03m
Length of Day
13h 09m
Waxing Crescent, 7% of the Moon is Illuminated
Aug 28
Waxing Crescent
Sep 2
First Quarter
Sep 9
Full
Sep 16
Last Quarter
Sep 24
New

Hourly Weather History & Observations

Time (CEST) Temp. Dew Point Humidity Pressure Visibility Wind Dir Wind Speed Gust Speed Precip Events Conditions
12:00 AM 83 °F 52 °F 23% 29.94 in - West 2.3 mph - -  
1:00 AM 80 °F 52 °F 27% 29.95 in - West 2.3 mph - -  
2:00 AM 77 °F 52 °F 31% 29.97 in - WNW 3.5 mph - -  
3:00 AM 75 °F 51 °F 32% 29.97 in - NW 1.2 mph - -  
4:00 AM 73 °F 53 °F 39% 29.96 in - Calm Calm - -  
5:00 AM 71 °F 57 °F 52% 29.96 in - Calm Calm - -  
6:00 AM 68 °F 57 °F 59% 29.96 in - Calm Calm - -  
7:00 AM 67 °F 54 °F 53% 29.97 in - Calm Calm - -  
8:00 AM 67 °F 54 °F 52% 29.99 in 19 mi Calm Calm - -  
9:00 AM 72 °F 52 °F 39% 29.99 in - Calm Calm - -  
10:00 AM 81 °F 50 °F 24% 29.99 in - ENE 1.2 mph - -  
11:00 AM 88 °F 50 °F 18% 29.98 in 22 mi East 2.3 mph - -  
12:00 PM 94 °F 49 °F 13% 29.96 in - Calm Calm - -  
1:00 PM 99 °F 46 °F 9% 29.96 in - Calm Calm - -  
2:00 PM 101 °F 43 °F 7% 29.95 in 22 mi West 4.6 mph - -  
3:00 PM 102 °F 42 °F 7% 29.93 in - West 8.1 mph - -  
4:00 PM 103 °F 40 °F 6% 29.90 in - West 8.1 mph - -  
5:00 PM 103 °F 43 °F 7% 29.89 in 25 mi WSW 11.5 mph - -  
6:00 PM 103 °F 45 °F 8% 29.89 in - WSW 10.4 mph - -  
7:00 PM 101 °F 43 °F 7% 29.88 in - WSW 10.4 mph - -  
8:00 PM 97 °F 42 °F 8% 29.88 in 25 mi WSW 10.4 mph - -   Clear
9:00 PM 91 °F 48 °F 14% 29.90 in - West 8.1 mph - -  
10:00 PM 87 °F 48 °F 17% 29.94 in - WSW 6.9 mph - -  
11:00 PM 82 °F 46 °F 18% 29.96 in 19 mi SW 5.8 mph - -